Location: Tel Aviv
(32.0670°N, 34.7670°E)
Time: 03:49:55
(UTC+03:00)

Vanguard 2 - Pass Details

Date: 01 February 2022
Orbit: 552 x 2935 km, 32.9° (Epoch: 25 May)

Event Time Altitude Azimuth Distance (km) Brightness Sun altitude
Rises 18:56:04 0° 263° (W) 3,328 12.4 -21.7°
Reaches altitude 10° 18:58:07 10° 264° (W) 2,587 11.4 -22.1°
Maximum altitude 19:04:21 87° 353° (N) 1,258 8.4 -23.5°
Enters shadow 19:08:12 40° 82° (E) 2,065 9.1 -24.3°
Drops below altitude 10° 19:15:12 10° 84° (E) 4,317 - -25.7°
Sets 19:19:34 0° 85° (E) 5,698 - -26.7°
